Weather History for PATK - October, 2012

Change the Weather History Date:

Monday, October 15, 2012

  Actual Average Record
Temperature  
Mean Temperature 30 °F -  
Max Temperature 33 °F 40 °F 59 °F (1969)
Min Temperature 26 °F 24 °F -6 °F (1965)
Degree Days  
Heating Degree Days 36    
Moisture  
Dew Point 29 °F    
Average Humidity 94    
Maximum Humidity 100    
Minimum Humidity 87    
Precipitation  
Precipitation 0.12 in - - ()
Snow  
Snow 0.00 in - - ()
Snow Depth 2.00 in    
Sea Level Pressure  
Sea Level Pressure 29.04 in    
Wind  
Wind Speed 0 mph (WNW)    
Max Wind Speed 5 mph    
Max Gust Speed -    
Visibility 7 miles    
Events Fog , Snow    
Averages and records for this station are not official NWS values.
T = Trace of Precipitation, MM = Missing Value Source: NWS Daily Summary

Daily Weather History Graph

Daily Weather History Graph

Search for Another Location

Airport or City:

Trip Planner

Search our weather history database for the weather conditions in past years. The results will help you decide how hot, cold, wet, or windy it might be!

Date:

Astronomy

Oct. 15, 2012 Rise Set
Actual Time 8:47 AM AKDT 6:43 PM AKDT
Civil Twilight 8:01 AM AKDT 7:28 PM AKDT
Nautical Twilight 7:09 AM AKDT 8:20 PM AKDT
Astronomical Twilight 6:17 AM AKDT 9:12 PM AKDT
Moon 9:34 AM AKDT (10/15) 6:19 PM AKDT (10/15)
Length of Visible Light 11h 27m
Length of Day
9h 55m
New Moon, 0% of the Moon is Illuminated
Oct 15
New Moon
Oct 21
First Quarter
Oct 29
Full
Nov 6
Last Quarter
Nov 13
New

Hourly Weather History & Observations

Time (AKDT) Temp. Windchill Dew Point Humidity Pressure Visibility Wind Dir Wind Speed Gust Speed Precip Events Conditions
12:53 AM 28.0 °F - 25.0 °F 88% 28.94 in 10.0 mi Calm Calm - N/A   Clear
1:53 AM 28.0 °F - 26.1 °F 92% 28.95 in 10.0 mi Calm Calm - N/A   Clear
2:53 AM 28.9 °F - 26.1 °F 89% 28.95 in 10.0 mi Calm Calm - N/A   Overcast
3:53 AM 30.0 °F - 28.0 °F 92% 28.95 in 10.0 mi Calm Calm - N/A   Overcast
4:53 AM 30.0 °F - 28.0 °F 92% 28.95 in 10.0 mi Calm Calm - N/A   Overcast
5:48 AM 30.2 °F - 30.2 °F 100% 28.94 in 8.0 mi Calm Calm - 0.01 in Snow Light Snow
5:53 AM 30.9 °F - 28.9 °F 92% 28.96 in 7.0 mi Calm Calm - 0.01 in Snow Light Snow
6:28 AM 30.2 °F - 30.2 °F 100% 28.95 in 2.0 mi Calm Calm - 0.02 in Snow Light Snow
6:39 AM 30.2 °F - 30.2 °F 100% 28.95 in 1.5 mi Calm Calm - 0.02 in Snow Light Snow
6:53 AM 30.9 °F - 30.0 °F 96% 28.97 in 1.8 mi Calm Calm - 0.03 in Snow Light Snow
7:53 AM 32.0 °F 27.5 °F 30.9 °F 96% 28.98 in 1.8 mi NW 4.6 mph - 0.03 in Snow Light Snow
8:08 AM 30.2 °F 25.4 °F 30.2 °F 100% 28.97 in 2.0 mi NW 4.6 mph - 0.01 in Snow Light Snow
8:53 AM 30.0 °F - 28.9 °F 96% 29.00 in 2.0 mi Calm Calm - 0.02 in Snow Light Snow
9:00 AM 30.2 °F - 28.4 °F 93% 28.99 in 1.8 mi Calm Calm - 0.00 in Snow Light Snow
9:08 AM 30.2 °F - 28.4 °F 93% 28.99 in 1.8 mi Calm Calm - 0.01 in Snow Light Snow
9:36 AM 30.2 °F - 28.4 °F 93% 29.00 in 0.8 mi Calm Calm - 0.02 in Snow Light Snow
9:53 AM 30.0 °F - 28.9 °F 96% 29.03 in 1.0 mi Calm Calm - 0.03 in Snow Light Snow
10:07 AM 30.2 °F 26.7 °F 28.4 °F 93% 29.02 in 1.0 mi South 3.5 mph - 0.01 in Snow Light Snow
10:53 AM 30.0 °F - 30.0 °F 100% 29.07 in 1.0 mi Calm Calm - 0.05 in Snow Light Snow
11:00 AM 30.2 °F - 30.2 °F 100% 29.05 in 0.5 mi Calm Calm - 0.01 in Fog , Snow Snow
11:20 AM 30.2 °F - 30.2 °F 100% 29.05 in 1.2 mi Calm Calm - 0.02 in Snow Light Snow
11:30 AM 30.2 °F - 30.2 °F 100% 29.06 in 2.5 mi Calm Calm - 0.02 in Snow Light Snow
11:38 AM 30.2 °F - 30.2 °F 100% 29.06 in 3.0 mi Calm Calm - 0.02 in Snow Light Snow
11:48 AM 32.0 °F - 30.2 °F 93% 29.07 in 9.0 mi Calm Calm - 0.02 in   Overcast
11:53 AM 32.0 °F - 30.0 °F 92% 29.08 in 9.0 mi Calm Calm - 0.02 in   Overcast
12:11 PM 32.0 °F - 30.2 °F 93% 29.07 in 10.0 mi Calm Calm - N/A   Overcast
12:53 PM 33.1 °F - 30.9 °F 92% 29.10 in 10.0 mi Calm Calm - N/A   Overcast
1:04 PM 32.0 °F - 30.2 °F 93% 29.08 in 10.0 mi Calm Calm - N/A   Overcast
1:53 PM 33.1 °F - 30.9 °F 92% 29.10 in 10.0 mi Calm Calm - N/A   Overcast
2:18 PM 33.8 °F - 30.2 °F 87% 29.08 in 10.0 mi Calm Calm - N/A   Overcast
2:53 PM 33.1 °F 30.0 °F 32.0 °F 96% 29.09 in 10.0 mi Variable 3.5 mph - N/A   Overcast
3:20 PM 33.8 °F - 30.2 °F 87% 29.07 in 10.0 mi Calm Calm - N/A   Overcast
3:53 PM 33.1 °F 30.0 °F 30.9 °F 92% 29.08 in 10.0 mi WNW 3.5 mph - N/A   Overcast
4:07 PM 33.8 °F - 30.2 °F 87% 29.06 in 10.0 mi Calm Calm - N/A   Overcast
4:53 PM 32.0 °F 28.7 °F 30.0 °F 92% 29.08 in 10.0 mi West 3.5 mph - N/A   Mostly Cloudy
5:00 PM 32.0 °F 28.7 °F 30.2 °F 93% 29.06 in 10.0 mi West 3.5 mph - N/A   Overcast
5:48 PM 32.0 °F - 28.4 °F 87% 29.05 in 10.0 mi Calm Calm - N/A   Clear
5:53 PM 32.0 °F - 28.9 °F 88% 29.06 in 10.0 mi Calm Calm - N/A   Clear
6:53 PM 30.0 °F - 28.9 °F 96% 29.06 in 10.0 mi Calm Calm - N/A   Partly Cloudy
7:28 PM 30.2 °F - 30.2 °F 100% 29.05 in 10.0 mi Calm Calm - N/A   Mostly Cloudy
7:53 PM 28.9 °F - 28.0 °F 96% 29.06 in 10.0 mi Calm Calm - N/A   Overcast
8:03 PM 28.4 °F - 28.4 °F 100% 29.05 in 9.0 mi Calm Calm - N/A   Overcast
8:12 PM 28.4 °F - 28.4 °F 100% 29.05 in 1.8 mi Calm Calm - N/A   Mostly Cloudy
8:20 PM 28.4 °F - 26.6 °F 93% 29.05 in 3.0 mi Calm Calm - N/A   Mostly Cloudy
8:38 PM 26.6 °F - 26.6 °F 100% 29.05 in 6.0 mi Calm Calm - N/A   Mostly Cloudy
8:53 PM 28.0 °F - 27.0 °F 96% 29.07 in 10.0 mi Calm Calm - N/A   Overcast
9:21 PM 28.4 °F - 26.6 °F 93% 29.06 in 10.0 mi Calm Calm - N/A   Overcast
9:41 PM 28.4 °F - 26.6 °F 93% 29.06 in 10.0 mi Calm Calm - N/A   Overcast
9:48 PM 28.4 °F - 26.6 °F 93% 29.06 in 10.0 mi Calm Calm - N/A   Overcast
9:53 PM 28.0 °F - 27.0 °F 96% 29.08 in 10.0 mi Calm Calm - N/A   Overcast
10:08 PM 28.4 °F - 26.6 °F 93% 29.06 in 10.0 mi Calm Calm - N/A   Overcast
10:53 PM 28.0 °F - 27.0 °F 96% 29.08 in 10.0 mi Calm Calm - N/A   Overcast
11:53 PM 27.0 °F - 26.1 °F 96% 29.08 in 10.0 mi Calm Calm - N/A   Overcast